STARLINK-35935

Last updated on Fri Dec 19 2025 00:02:05 GMT+0000 (Coordinated Universal Time)

1 66527U 25265M 25352.66667824 -.03251353 00000+0 -81389-1 0 9991 2 66527 43.0005 19.3693 0000769 283.1219 214.5623 15.43457308 5940
UTC large
Height (km)
Speed (km/s)
/
Latitude / Longitude
Inclination (degrees)
Orbital Period (minutes)
Azimuth
Elevation
Range (km)
Doppler Factor

Next 0 passes for location: London (51.5072 / 0.1276)

Sorry there are no passes over London.